Regional Weather Roundup
Issued by NWS

Home | Current Version | Previous Version | Text Only | Print | Product List | Glossary On
Versions: 1 2 3 4 5 6 7 8 9 10 11 12 13 14 15 16 17 18 19 20 21 22 23 24 25 26 27 28 29 30 31 32 33 34 35 36 37 38 39 40 41 42 43 44 45 46 47 48 49 50
000
ASUS44 KFWD 230315
RWRTX
NORTH TEXAS HOURLY WEATHER ROUNDUP
NATIONAL WEATHER SERVICE FORT WORTH TX
1000 PM CDT FRI SEP 22 2017

NOTE: "FAIR" INDICATES FEW OR NO CLOUDS BELOW 12,000 FEET WITH NO
SIGNIFICANT WEATHER AND/OR OBSTRUCTIONS TO VISIBILITY.

TXZ118-119-230400-
DALLAS/FORT WORTH METROPLEX

CITY           SKY/WX    TMP DP  RH WIND       PRES   REMARKS
DFW AIRPORT    CLEAR     85  66  53 SE10      29.90R
DALLAS LOVE    CLEAR     84  65  52 SE13      29.91R
FTW MEACHAM    CLEAR     85  67  54 SE14      29.90R
DAL-EXECUTIVE  CLEAR     83  66  56 SE9       29.91R
FTW-ALLIANCE   CLEAR     84  65  52 SE13      29.90R
FTW-NAS-JRB    CLEAR     85  64  49 SE12      29.91R
FTW-SPINKS     CLEAR     82  65  55 SE7       29.93R
ARLINGTON      CLEAR     83  68  60 SE12      29.91R
GRAND PRAIRIE  CLEAR     83  64  53 SE8       29.92R
ADDISON        CLEAR     84  64  51 SE12G20   29.92S
MESQUITE       CLEAR     77  65  66 SE5       29.93R
LANCASTER      CLEAR     80  64  59 SE6       29.93R
$$

TXZ091>094-102>105-117-120-121-131>134-230400-
NORTH CENTRAL TEXAS

CITY           SKY/WX    TMP DP  RH WIND       PRES   REMARKS
SHRMAN/DENISON CLEAR     80  64  58 SE8       29.94S
GAINESVILLE    CLEAR     78  63  60 SE8       29.94R
BOWIE          CLEAR     78  65  62 SE5       29.91S
BRIDGEPORT     CLEAR     78  64  61 SE5       29.92R
DECATUR        CLEAR     81  64  55 SE9       29.91S
DENTON         CLEAR     81  64  56 SE7       29.91R
MCKINNEY       CLEAR     80  67  64 SE10      29.92S
BONHAM         CLEAR     77  64  64 SE6       29.94R
GREENVILLE     CLEAR     77  66  69 SE3       29.94R
ROCKWALL       CLEAR     80  66  62 SE6       29.93R
TERRELL        CLEAR     81  65  58 SE7       29.93R
WAXAHACHIE     CLEAR     81  67  62 SE6       29.93S
CLEBURNE       CLEAR     82  68  61 SE12      29.94R
GRANBURY       CLEAR     85  65  51 SE9       29.92R
$$

TXZ083>090-098>101-113>116-127>130-139>142-154-155-230400-
WESTERN NORTH TEXAS

CITY           SKY/WX    TMP DP  RH WIND       PRES   REMARKS
WICHITA FALLS  CLEAR     80  66  62 SE12      29.88R
WF-KICKAPOO    CLEAR     82  67  61 SE10G17   29.91R
VERNON         CLEAR     83  62  47 SE15G21   29.88R
ABILENE        CLEAR     82  64  54 SE16G26   29.90R
ABILENE-DYESS  CLEAR     83  65  54 SE18G24   29.88R
GRAHAM         CLEAR     83  64  53 SE8       29.89R
BRECKENRIDGE   CLEAR     84  64  51 SE14G22   29.90R
CISCO          CLEAR     81  66  61 SE14G21   29.93R
EASTLAND       CLEAR     81  66  60 SE14G20   29.92R
RANGER         CLEAR     79  65  62 S9        29.93R
MINERAL WELLS  CLEAR     80  64  58 SE8       29.89R
STEPHENVILLE   CLEAR     79  64  60 SE7       29.95R
COMANCHE       CLEAR     80  67  65 SE12G20   29.93R
BROWNWOOD      PTCLDY    81  64  57 SE13      29.92R
COLEMAN        CLEAR     81  65  58 SE16G23   29.92R
$$

TXZ143>147-156>162-174-175-230400-
CENTRAL TEXAS

CITY           SKY/WX    TMP DP  RH WIND       PRES   REMARKS
WACO           CLEAR     82  67  60 SE8       29.91R
WACO-TSTC      CLEAR     81  66  61 SE3       29.91S
WACO-MCGREGOR  CLEAR     81  67  62 SE9       29.92R
HILLSBORO      CLEAR     82  67  60 SE9       29.92S
CORSICANA      CLEAR     78  69  73 SE7       29.93S
MEXIA          CLEAR     77  68  72 SE7       29.92S
HEARNE         CLEAR    N/A N/A N/A E3        29.92S
CAMERON        CLEAR     78  69  73 CALM      29.91S
TEMPLE         CLEAR     81  69  67 SE14      29.92S
KILLEEN        CLEAR     76  68  78 SE8       29.92R
FORT HOOD      CLEAR     77  70  77 S8        29.89R
GATESVILLE     CLEAR     79  68  69 CALM      29.94R
HAMILTON       CLEAR     79  67  66 S9        29.94R
LAMPASAS       CLEAR     78  70  75 S6        29.93R
$$

TXZ095>097-106>112-122>126-135>138-148>153-164>167-230400-
EAST TEXAS

CITY           SKY/WX    TMP DP  RH WIND       PRES   REMARKS
PARIS          CLEAR     77  68  73 SE5       29.95R
SULPHUR SPRNGS CLEAR     80  66  63 SE5       29.96R
MOUNT PLEASANT CLEAR     76  70  83 CALM      29.95S
GILMER         CLEAR     75  71  87 CALM      29.95R
MINEOLA        CLEAR     73  70  88 E3        29.93S
TYLER          NOT AVBL
LONGVIEW       NOT AVBL
MARSHALL       CLEAR     71  67  87 CALM      29.97R
ATHENS         CLEAR     75  64  69 CALM      29.92S
PALESTINE      CLEAR     79  71  77 E3        29.95R
JACKSONVILLE   CLEAR     78  71  79 CALM      29.97R
HENDERSON      CLEAR     73  71  92 CALM      29.96R
CENTER         CLEAR     77  75  93 CALM      29.96R
NACOGDOCHES    CLEAR     73  72  96 CALM      29.95R
$$

SUPPLEMENTAL OBSERVATIONS (NWS FORT WORTH AREA)

CITY           SKY/WX    TMP DP  RH WIND       PRES   REMARKS
DENISON DAM      N/A     79  64  61 SE3         N/A
CADDO GRASSLND   N/A     73  64  73 CALM        N/A
PAT MAYSE LAKE   N/A     81  70  69 E7          N/A
GREENVILLE       N/A     77  64  65 SE1         N/A
CEDAR HILL       N/A     81  64  57 SE5G13      N/A
LBJ GRASSLAND    N/A    N/A N/A N/A SE8         N/A
POSSUM KINGDOM   N/A     82  64  54 SE10        N/A
GRANBURY         N/A     84  64  51 SE10        N/A
COMANCHE         N/A     79  64  61 SE14        N/A
MCGREGOR         N/A     81  64  57 SE6         N/A
TEMPLE           N/A     81  68  65 SE3         N/A
LAKE LIMESTONE   N/A     75  68  78 E3          N/A
ATHENS           N/A     81  68  65 S5          N/A
$$

SUPPLEMENTAL OBSERVATIONS (NWS NORMAN AREA)

CITY           SKY/WX    TMP DP  RH WIND       PRES   REMARKS
GOODLETT         N/A     82  62  50 SE12      29.87R
ODELL            N/A     81  67  63 SE10      29.90R
CROWELL          N/A     84  66  54 SE15      29.89R
KNOX CITY        N/A     84  61  46 SE15      29.88R
SEYMOUR          N/A     83  63  51 SE16      29.89R
MILLERS CREEK    N/A     82  64  54 SE12        N/A
$$

SUPPLEMENTAL OBSERVATIONS (NWS SAN ANGELO AREA)

CITY           SKY/WX    TMP DP  RH WIND       PRES   REMARKS
HASKELL          N/A     83  61  47 SE12      29.89R
THROCKMORTON     N/A     82  66  57 SE14      29.90R
STAMFORD         N/A     83  65  54 SE13      29.89R
CLYDE            N/A     80  66  61 SE14      29.94R
HAMBY            N/A     82  63  51 SE9         N/A
IVIE RESERVOIR   N/A     81  64  57 SE17G23     N/A
COLORADO BEND    N/A     79  66  65 SE14G25     N/A
$$

SUPPLEMENTAL OBSERVATIONS (NWS SHREVEPORT AREA)

CITY           SKY/WX    TMP DP  RH WIND       PRES   REMARKS
CLARKSVILLE      N/A     77  68  73 E1          N/A
TEXARKANA        N/A     72  70  94 CALM        N/A
LINDEN           N/A     75  68  78 CALM        N/A
CADDO LAKE       N/A     70  66  88 CALM        N/A
GILMER           N/A     73  70  88 CALM        N/A
HENDERSON        N/A     73  70  88 CALM        N/A
LUFKIN           N/A     75  73  94 MISG        N/A
N SABINE NF      N/A     73  72  94 MISG        N/A
S SABINE NF      N/A     73  72  94 CALM        N/A
$$

SUPPLEMENTAL OBSERVATIONS ARE A COLLECTION OF AUTOMATED INSTRUMENTS
THAT ARE MAINTAINED BY A VARIETY OF FEDERAL AND STATE AGENCIES.
CERTAIN ELEMENTS...SUCH AS HUMIDITY VALUES AND SUSTAINED WIND
SPEEDS...MAY BE APPROXIMATED.




USA.gov is the U.S. government's official web portal to all federal, state and local government web resources and services.